Location: Bronnegerveen
(52.9548°N, 6.8388°E)
Time: 02:07:05
(UTC+00:00)

Cosmos 304 Rocket - Pass Details

Date: 15 June 2025
Orbit: 669 x 678 km, 74.0° (Epoch: 07 July)

Event Time Altitude Azimuth Distance (km) Brightness Sun altitude
Exits shadow 01:00:52 15° 214° (SW) 1,776 5.3 -11.4°
Maximum altitude 01:04:44 71° 298° (WNW) 716 3.9 -11.2°
Drops below altitude 10° 01:09:31 10° 23° (NNE) 2,123 7.9 -10.9°
Sets 01:11:51 0° 25° (NNE) 3,043 9.4 -10.8°
